CAPE
96 216 177 414 642 772 794 607 569 502 536 665 295 228 261 445 490 545 571 600 616 618 536 922 998 934 864 1098 968 1071 1190 1040 1221 1078 874 930 839 434 239 387 272 683 327 628
110 167 182 453 595 787 549 503 543 721 608 472 463 223 206 404 454 601 670 644 651 671 646 595 588 1000 1143 1226 1227 1210 1295 1397 1140 1084 907 1099 969 723 721 577 418 803 533 918
48 70 161 243 443 363 314 471 386 322 324 219 265 362 370 408 451 452 636 738 783 745 700 680 666 1075 1298 1275 1240 1344 1275 1441 1432 1251 1276 1300 1180 1050 988 839 576 541 409 437
0 45 285 259 463 420 333 532 453 525 212 145 110 211 272 467 599 195 146 288 866 904 797 816 803 684 1270 1276 1140 1397 1613 1467 1254 1476 1300 1315 1122 980 813 751 625 512 607 315
0 10 67 152 139 404 391 472 428 489 307 247 101 110 179 334 282 180 258 248 204 966 952 855 893 886 799 1267 1414 1650 1606 1697 1310 1579 1319 1345 1264 1208 932 920 766 702 803 543
0 0 17 40 122 284 245 484 499 441 331 345 255 189 263 195 279 254 66 204 270 1009 938 935 962 957 893 1066 1588 1862 1853 1905 1625 1509 1590 1398 1363 1351 1232 1111 867 748 491 598
0 0 0 0 2 29 105 509 448 418 329 214 286 216 98 26 45 111 76 247 385 804 911 980 1022 968 1116 1235 1105 1618 1726 2111 1884 1644 1642 1792 1548 1379 1296 1187 905 726 463 528
0 0 0 0 0 0 29 250 448 235 253 328 272 156 170 45 83 118 143 395 423 777 1111 1082 1052 996 1213 1322 1241 1753 1677 1750 2300 2045 1850 1505 2225 1961 1495 1406 883 651 653 635
0 0 0 0 0 1 0 72 153 124 106 105 185 78 90 62 107 18 89 71 80 359 1182 1237 1207 1116 1281 1387 1409 1623 1988 2076 2251 2380 2250 2164 1834 2261 1806 1643 1376 921 639 607
0 0 0 0 1 16 0 135 168 130 206 332 221 77 56 4 98 55 0 9 86 278 365 1333 1371 1303 1275 1378 1300 1779 2249 2351 2401 2317 2357 2340 2155 2213 2021 1756 1399 1204 1133 1146
0 0 0 0 0 1 126 116 93 107 184 283 202 340 150 154 137 42 8 17 214 480 596 871 1406 1437 1451 1451 1339 1883 2448 2386 2456 2495 2489 2431 2261 1941 1894 1567 1745 1332 1230 1225
0 0 0 0 0 0 67 191 114 87 398 141 52 104 77 69 0 0 0 0 33 847 779 941 1053 1590 1791 1678 1605 2216 2389 2378 2556 2423 2456 2555 2426 2145 1915 1675 1638 1651 1641 1551
0 0 0 0 0 9 3 23 189 289 153 334 224 166 114 1 0 0 1 3 129 769 965 1065 1117 1698 1912 1832 1907 1999 2383 2301 2459 2610 2465 2567 2475 2273 2055 1876 1535 1825 1766 1720
0 0 0 0 0 5 21 0 1 7 49 117 329 31 21 5 0 1 0 117 471 661 494 767 1158 1332 1700 1933 2063 2084 2108 2142 2032 2541 2605 2584 2504 2333 2139 2017 1804 1776 1866 1780
0 0 0 0 0 0 0 0 20 21 8 4 195 8 9 0 22 0 4 16 0 443 698 735 848 1383 1475 1677 1817 2039 2136 1996 1901 2346 2549 2467 2542 2417 2349 2064 1828 1724 1626 1695
0 0 0 0 0 0 0 0 54 29 12 0 0 28 47 15 41 9 0 0 429 170 217 664 1016 1704 1827 2118 2058 2413 2066 2019 2081 2387 2441 2454 2458 2264 2122 2077 1843 1735 1556 1575
0 0 0 0 0 0 0 0 0 3 266 171 340 161 33 65 34 2 1 126 593 525 594 476 361 1417 1979 2246 2700 2654 2401 2344 2266 2401 2385 2611 2452 2341 2177 1589 1623 1611 1580 1367
0 0 0 0 0 0 19 35 173 268 426 546 547 474 476 158 289 783 885 1034 1160 651 1070 1147 1337 1020 1582 2524 3076 2753 3252 2774 3123 3182 2878 2665 2524 2131 1966 1526 1413 1541 1281 972
0 0 0 0 0 2 133 79 244 193 271 567 887 1129 1258 1150 1117 1045 1377 1572 1719 1940 1689 1832 1804 2002 2179 2727 2957 2717 2833 3677 3636 3436 2910 2572 2350 2248 1982 1597 1601 1379 1047 760
3 4 36 54 47 98 38 31 0 91 37 212 627 864 1210 1224 1024 1069 1267 1451 1556 1796 2050 2228 2059 2314 2990 3185 2808 2958 2934 3465 3462 3053 3120 2719 2432 2177 2048 1796 1515 1143 831 1015
45 38 7 9 193 87 0 0 140 185 87 22 23 267 592 758 731 914 1049 1119 1217 1681 1947 2048 2345 2798 2818 3252 3166 2988 3167 3336 3286 3155 3188 2782 2475 2194 2078 1683 1266 1128 1219 1255
235 118 4 5 42 15 2 4 204 3 3 1 0 0 3 101 269 384 232 286 413 870 1366 1985 2279 2954 3430 3375 3080 3052 3468 3489 3285 3151 3055 2997 2553 2250 2121 1702 1384 1242 1240 1292
172 40 212 118 1 0 6 37 23 9 14 6 0 0 0 0 0 0 0 34 27 98 743 908 1971 2505 3251 3608 3378 3281 3451 3593 3336 3185 3136 2997 2672 2303 2060 1780 1560 1285 1217 1080
39 0 1 0 0 0 0 0 0 31 3 0 0 0 0 0 0 0 0 0 0 0 37 456 715 2037 2605 3088 3613 3570 3963 3607 3388 3214 3186 2998 2755 2445 1954 1755 1569 1195 1080 1017
0 10 1 0 0 0 0 0 0 0 0 0 0 0 0 0 0 0 0 0 0 0 12 36 441 479 1871 2453 2993 3396 3816 3469 3323 3170 3152 3003 2650 2427 2043 1750 1660 1269 1154 1168
0 0 0 1 0 0 8 0 0 0 0 0 0 0 0 0 0 0 0 0 0 0 18 0 0 111 601 1454 2191 2750 2880 3079 3065 3218 3115 2888 2587 2317 2015 1707 1684 1690 1353 1495
CIN
-254 -156 -137 -17 -32 -24 -11 -39 -22 -142 -18 -12 -15 -16 -10 -40 -33 -58 -28 -58 -85 -86 -64 -147 -142 -169 -176 -186 -162 -95 -74 -49 -55 -61 -79 -47 -59 -59 -116 -132 -69 -29 -46 -28
-283 -182 -94 -49 -31 -9 -13 -29 -11 -33 -9 -6 -14 -27 -11 -34 -28 -34 -54 -59 -61 -70 -64 -39 -122 -133 -193 -224 -179 -135 -75 -76 -71 -52 -82 -43 -36 -57 -42 -54 -69 -33 -33 -27
-329 -218 -117 -67 -22 -25 -31 -47 -19 -14 -20 -15 -49 -38 -30 -34 -22 -21 -40 -57 -70 -71 -119 -176 -33 -192 -217 -221 -206 -169 -131 -80 -56 -56 -38 -27 -17 -18 -31 -41 -77 -55 -50 -39
-20 -136 -79 -62 -34 -10 -21 -12 -17 -11 -42 -46 -46 -41 -31 -24 -13 -12 -21 -52 -78 -64 -78 -74 -44 -173 -198 -241 -230 -198 -153 -124 -105 -57 -58 -39 -44 -23 -32 -26 -38 -57 -37 -53
0 -100 -187 -75 -82 -15 -14 -21 -14 -27 -18 -23 -93 -102 -76 -1 -11 -9 -12 -32 -35 -66 -46 -63 -48 -36 -180 -207 -192 -176 -172 -142 -128 -89 -82 -57 -46 -28 -26 -22 -30 -101 -50 -46
0 0 -184 -161 -74 -28 -48 -19 -21 -20 -29 -20 -130 -42 -20 -12 -4 -2 -6 -33 -62 -69 -88 -75 -38 -150 -138 -177 -131 -152 -182 -157 -128 -108 -78 -74 -57 -29 -12 -5 -16 -25 -34 -44
0 0 0 0 -16 -131 -126 -8 -9 -6 -7 -66 -48 -16 -26 -28 -65 -47 -12 -11 -31 -59 -84 -57 -44 -162 -160 -207 -95 -165 -144 -135 -135 -126 -97 -66 -64 -42 -21 -9 -20 -22 -46 -65
0 0 0 0 0 0 -108 -20 -2 -16 -24 -57 -47 -84 -11 -62 -71 -34 -8 -9 -25 -41 -76 -48 -50 -59 -165 -189 -193 -165 -186 -161 -108 -98 -124 -101 -21 -21 -21 -24 -44 -80 -83 -66
0 0 0 0 0 -19 0 -39 -16 -69 -76 -103 -126 -106 -98 -29 -363 -70 -16 -31 -89 -30 -68 -64 -106 -46 -158 -192 -193 -174 -194 -165 -117 -89 -86 -75 -72 -15 -21 -19 -25 -49 -100 -134
0 0 0 0 -1 -103 -9 -161 -21 -87 -75 -34 -58 -114 -24 -118 -203 -253 -2 -45 -69 -30 -24 -57 -73 -55 -99 -148 -107 -151 -191 -143 -108 -101 -83 -73 -58 -26 -12 -13 -44 -75 -66 -50
0 0 0 0 0 -6 -81 -130 -116 -150 -122 -41 -43 -75 -77 -225 -71 -38 -11 -9 -11 -8 -27 -38 -48 -43 -70 -122 -123 -124 -142 -129 -82 -79 -77 -70 -76 -62 -41 -43 -24 -63 -57 -42
0 0 0 -3 0 0 -50 -46 -41 -91 -130 -87 -32 -93 -24 -230 -5 -14 0 0 -28 -30 -29 -50 -49 -60 -72 -105 -137 -139 -144 -129 -98 -71 -51 -69 -70 -54 -50 -71 -60 -37 -34 -28
0 0 0 0 0 -34 -18 -2 -26 -16 -70 -30 -7 -140 -338 -7 0 0 -265 0 -15 -24 -30 -45 -62 -80 -70 -102 -126 -102 -121 -120 -108 -81 -58 -50 -49 -61 -62 -64 -65 -28 -27 -23
0 0 0 0 0 -1 -5 0 -8 -7 -29 -18 -51 -23 -15 -82 0 -79 0 -7 -21 -26 -24 -29 -35 -100 -73 -102 -114 -110 -107 -102 -78 -83 -51 -34 -52 -47 -25 -37 -25 -41 -34 -25
0 0 0 0 0 0 -10 0 -4 -25 -19 -3 -173 -168 -234 -50 -139 -50 -5 -3 0 -26 -31 -21 -34 -41 -86 -95 -73 -82 -86 -100 -106 -85 -47 -43 -36 -36 -23 -10 -18 -43 -54 -39
0 0 0 0 0 0 0 0 -1 -19 -2 0 0 -6 -90 -33 -143 -177 0 -1 -33 -9 -15 -33 -52 -130 -151 -200 -185 -191 -105 -115 -87 -62 -61 -35 -45 -32 -12 -52 -44 -58 -53 -42
0 0 0 0 0 0 0 0 -11 -5 -64 -31 -54 -79 -98 -62 -195 -236 -2 -52 -43 -82 -72 -45 -66 -70 -98 -200 -180 -164 -110 -124 -69 -114 -59 -106 -64 -77 -46 -32 -81 -56 -30 -40
0 0 0 0 0 0 -17 -81 -58 -141 -103 -115 -99 -90 -47 -52 -26 -31 -185 -18 -50 -42 -51 -73 -62 -45 -131 -207 -174 -159 -110 -148 -130 -116 -86 -76 -32 -39 -83 -65 -88 -56 -41 -32
0 0 0 0 0 -4 -28 -122 -146 -174 -175 -161 -148 -125 -84 -38 -72 -78 -82 -124 -124 -144 -115 -81 -78 -72 -145 -96 -111 -157 -135 -102 -81 -83 -127 -164 -158 -108 -80 -78 -81 -55 -34 -40
-12 -10 -81 -40 -37 -41 -79 -100 0 -116 -114 -170 -173 -171 -111 -104 -108 -99 -138 -177 -170 -134 -188 -132 -80 -42 -94 -165 -176 -187 -170 -104 -78 -67 -127 -140 -139 -129 -90 -71 -61 -39 -59 -39
-14 -16 -13 -13 -63 -112 0 0 -52 -45 -196 -228 -242 -250 -190 -159 -165 -130 -123 -129 -220 -100 -115 -119 -118 -74 -61 -122 -148 -159 -146 -116 -98 -106 -89 -87 -106 -116 -85 -58 -67 -54 -25 -14
-41 -36 -62 -11 -301 -87 -25 -32 -197 -166 -181 -123 0 0 -101 -270 -176 -140 -197 -407 -401 -275 -205 -88 -99 -92 -102 -142 -147 -108 -93 -92 -78 -99 -89 -62 -86 -90 -68 -68 -54 -34 -13 -9
-142 -77 -55 -14 -3 0 -123 -167 -191 -165 -180 -92 0 0 0 0 0 0 0 -448 -480 -490 -379 -222 -48 -51 -78 -46 -97 -87 -85 -65 -57 -47 -39 -31 -37 -60 -57 -42 -40 -26 -7 -32
-109 0 -9 0 0 0 0 0 0 -127 -92 0 0 0 0 0 0 0 0 0 0 0 -545 -386 -355 -49 -41 -44 -51 -62 -63 -50 -44 -36 -23 -13 -18 -33 -35 -41 -32 -47 -32 -26
0 -56 -5 0 0 0 0 0 0 0 0 0 0 0 0 0 0 0 0 0 0 0 -566 -427 -380 -372 -34 -59 -35 -18 -38 -29 -37 -27 -21 -13 -15 -20 -20 -35 -44 -86 -90 -64
-15 0 0 -17 0 -58 -80 0 0 0 0 0 0 0 0 0 0 0 0 0 0 0 -454 0 0 -448 -338 -205 -42 -29 -5 -8 -24 -12 -10 -13 -12 -3 -7 -18 -24 -23 -54 -37
Wind_Speed
nan 1 4 7 12 8 7 12 15 34 29 15 11 10 16 35 32 34 30 22 18 21 24 37 35 28 25 22 24 23 16 12 12 9 7 6 6 5 7 7 10 12 15 15
4 2 4 9 5 6 2 3 3 15 15 15 4 6 11 22 32 31 38 34 27 24 21 24 25 36 27 31 25 23 15 12 12 8 6 5 6 3 3 7 10 12 14 14
nan nan 5 11 10 11 5 5 2 2 12 2 6 8 6 11 20 32 40 50 44 33 33 29 29 32 28 29 29 20 21 14 13 11 8 6 6 6 6 5 9 10 14 11
nan nan 2 8 7 10 8 16 6 10 10 10 12 4 5 6 15 13 18 33 27 37 35 32 30 30 33 29 29 27 21 21 15 15 11 10 9 6 5 9 9 9 11 9
nan nan nan 7 5 12 12 22 8 8 12 13 12 9 5 14 19 10 17 13 19 33 38 35 32 29 29 31 30 29 26 21 19 16 13 11 8 6 6 9 11 9 10 9
nan nan nan nan 13 10 27 27 10 10 11 7 9 9 7 12 10 12 nan 28 14 41 34 31 28 25 25 29 30 28 26 22 19 17 14 13 10 8 10 9 9 9 10 8
nan nan nan nan nan nan 17 23 5 7 9 17 12 16 nan nan nan 9 nan 22 18 28 35 29 26 25 23 27 30 31 31 24 22 19 14 13 13 10 9 11 10 12 10 9
nan nan nan nan nan nan nan 11 19 13 9 23 20 21 6 nan nan 15 16 15 4 20 30 31 27 24 23 27 27 30 33 26 22 22 19 16 17 13 10 10 10 7 9 9
nan nan nan nan nan nan nan nan 18 29 19 27 24 nan nan nan 24 nan nan nan nan 13 31 30 34 29 26 29 29 28 29 26 22 20 21 17 16 15 12 9 10 9 8 9
nan nan nan nan nan nan nan 21 29 33 25 27 30 nan nan nan nan nan nan nan nan 12 24 32 34 32 30 31 27 24 26 24 22 22 20 17 14 13 14 11 9 11 10 9
nan nan nan nan nan nan 26 21 nan 33 24 25 25 22 29 35 20 nan nan nan 10 8 21 32 35 29 27 27 25 23 24 23 21 21 23 19 17 16 15 13 11 12 13 11
nan nan nan nan nan nan nan 27 21 nan 15 14 nan 22 nan nan nan nan nan nan nan 27 31 31 28 31 27 26 25 26 24 26 26 22 20 24 24 22 17 13 15 15 17 15
nan nan nan nan nan nan nan nan 26 30 28 10 17 23 18 nan nan nan nan nan 13 17 18 21 25 34 30 26 27 30 30 27 28 27 25 23 24 22 20 20 18 17 19 18
nan nan nan nan nan nan nan nan nan nan nan 9 27 nan nan nan nan nan nan 24 8 17 13 21 21 22 27 31 29 29 30 31 26 23 22 21 21 21 18 17 21 23 19 20
nan nan nan nan nan nan nan nan nan nan nan nan 30 nan nan nan nan nan nan nan nan 7 22 12 20 26 27 28 31 30 32 29 28 28 25 25 28 24 23 21 23 29 25 22
nan nan nan nan nan nan nan nan nan nan nan nan nan nan nan nan nan nan nan nan 17 17 27 22 27 29 28 32 31 36 36 34 28 29 28 23 26 27 28 28 29 30 30 29
nan nan nan nan nan nan nan nan nan nan 34 21 26 8 nan nan nan nan nan 17 18 26 26 22 24 32 35 29 32 35 36 31 31 30 30 28 27 29 32 24 26 26 24 22
nan nan nan nan nan nan nan nan 33 44 37 37 35 32 23 12 5 19 33 15 25 20 20 24 24 27 38 36 29 32 34 32 28 28 30 24 26 25 29 22 22 20 14 13
nan nan nan nan nan nan 25 nan 42 44 46 42 39 39 30 32 39 36 43 41 35 29 27 28 30 22 32 33 25 27 30 34 31 28 35 34 31 27 27 19 18 14 10 10
nan nan nan nan nan nan nan nan nan nan nan 49 44 42 44 43 45 38 48 48 47 46 43 38 25 26 27 22 23 28 26 29 30 29 28 31 34 31 25 20 16 14 11 8
nan nan nan nan 35 nan nan nan 24 42 nan nan nan 44 45 48 46 45 50 48 45 44 39 35 28 18 22 21 22 26 29 29 31 34 32 29 27 28 22 20 15 15 13 10
30 27 nan nan nan nan nan nan 44 nan nan nan nan nan nan 41 42 43 40 40 41 40 37 33 27 25 22 27 25 24 27 29 30 32 31 28 28 24 21 19 15 14 14 14
39 nan 39 38 nan nan nan nan nan nan nan nan nan nan nan nan nan nan nan nan nan nan 34 33 28 27 24 16 27 24 24 30 29 31 28 26 26 23 21 19 18 15 14 12
nan nan nan nan nan nan nan nan nan nan nan nan nan nan nan nan nan nan nan nan nan nan nan 35 32 29 24 21 14 25 29 29 28 28 27 27 25 23 22 21 16 16 18 14
nan nan nan nan nan nan nan nan nan nan nan nan nan nan nan nan nan nan nan nan nan nan nan nan 32 30 30 23 26 21 27 29 28 26 26 27 23 23 21 22 20 18 19 15
nan nan nan nan nan nan nan nan nan nan nan nan nan nan nan nan nan nan nan nan nan nan nan nan nan 31 31 33 27 27 28 26 28 27 26 28 26 24 22 22 18 15 15 19
Wind_Direction
nan 173 119 161 311 8 346 46 337 13 45 38 26 32 2 360 359 351 349 350 0 9 360 353 4 359 344 341 333 341 322 336 316 310 307 289 281 267 274 267 257 249 253 238
188 32 71 321 322 290 279 189 1 7 46 319 7 38 35 353 357 342 345 343 1 2 359 352 338 345 339 339 344 331 335 320 324 307 280 277 292 273 282 289 276 268 264 248
nan nan 82 5 349 342 2 276 352 258 269 311 289 53 34 22 353 348 348 348 350 7 4 358 350 350 343 341 341 340 337 324 314 306 281 274 261 259 264 259 276 276 262 253
nan nan 44 146 318 337 277 281 307 247 275 287 305 88 206 30 313 283 313 316 350 356 1 356 353 346 351 353 350 342 332 324 318 308 302 294 292 284 289 290 281 286 281 265
nan nan nan 176 87 306 281 289 263 270 292 283 231 236 119 251 259 302 315 241 331 352 350 353 356 349 339 340 345 336 329 325 322 320 311 301 294 286 276 281 295 298 281 277
nan nan nan nan 159 279 277 292 264 280 282 295 223 274 247 230 332 318 nan 338 314 326 334 336 345 346 346 337 332 335 334 331 321 320 302 302 308 305 284 287 288 280 271 270
nan nan nan nan nan nan 278 286 270 291 296 305 271 255 nan nan nan 196 nan 348 339 305 322 331 339 340 343 344 345 333 333 328 321 324 315 300 303 311 304 293 288 285 270 258
nan nan nan nan nan nan nan 281 287 292 248 286 271 304 308 nan nan 215 253 258 56 328 325 330 351 350 342 341 348 344 338 339 325 319 317 308 290 275 287 285 279 285 295 284
nan nan nan nan nan nan nan nan 225 242 224 253 291 nan nan nan 206 nan nan nan nan 25 336 342 347 355 346 344 352 350 342 343 334 314 307 308 301 296 293 288 290 285 293 289
nan nan nan nan nan nan nan 240 215 230 238 238 263 nan nan nan nan nan nan nan nan 69 309 336 344 350 343 345 348 345 341 345 342 333 325 318 313 293 291 279 283 286 282 279
nan nan nan nan nan nan 275 255 nan 247 259 257 249 287 310 357 23 nan nan nan 143 16 308 315 334 337 337 335 333 330 334 343 341 336 330 329 323 311 298 303 292 293 282 274
nan nan nan nan nan nan nan 299 266 nan 239 263 nan 270 nan nan nan nan nan nan nan 296 314 313 309 328 332 335 326 323 324 326 330 328 331 333 326 309 307 302 294 294 290 284
nan nan nan nan nan nan nan nan 286 264 249 228 298 255 258 nan nan nan nan nan 84 288 310 310 317 325 337 342 336 332 329 329 326 320 316 317 322 320 313 309 293 289 290 288
nan nan nan nan nan nan nan nan nan nan nan 271 274 nan nan nan nan nan nan 142 234 300 317 306 327 330 325 340 347 347 341 333 329 329 325 317 323 325 321 318 305 298 286 282
nan nan nan nan nan nan nan nan nan nan nan nan 292 nan nan nan nan nan nan nan nan 35 308 323 313 331 331 336 342 340 346 340 325 322 324 325 324 317 308 308 303 295 285 275
nan nan nan nan nan nan nan nan nan nan nan nan nan nan nan nan nan nan nan nan 220 228 273 289 306 323 326 324 331 329 336 340 333 311 321 319 314 317 313 309 311 296 285 275
nan nan nan nan nan nan nan nan nan nan 222 247 248 230 nan nan nan nan nan 259 214 213 236 254 279 314 320 324 315 316 318 323 326 319 308 311 314 314 317 311 302 305 298 276
nan nan nan nan nan nan nan nan 230 243 231 227 236 251 266 284 13 259 271 159 212 224 244 257 273 293 313 312 300 293 295 307 319 308 305 298 306 310 319 310 310 313 308 290
nan nan nan nan nan nan 213 nan 233 238 225 221 225 220 237 255 246 242 252 254 259 251 255 271 285 286 293 307 298 285 288 295 304 312 317 307 305 310 323 316 313 304 286 268
nan nan nan nan nan nan nan nan nan nan nan 219 219 217 224 240 252 249 247 249 250 253 259 263 277 282 284 304 296 279 281 294 305 315 328 313 308 312 322 311 309 300 283 280
nan nan nan nan 220 nan nan nan 221 229 nan nan nan 227 232 241 249 250 252 250 252 257 256 252 245 271 307 303 280 271 281 291 297 304 312 315 308 310 322 315 299 300 290 282
222 235 nan nan nan nan nan nan 235 nan nan nan nan nan nan 243 247 247 250 254 250 249 247 248 250 247 274 294 287 274 276 284 292 296 305 316 309 298 309 318 316 313 305 288
222 nan 237 231 nan nan nan nan nan nan nan nan nan nan nan nan nan nan nan nan nan nan 263 260 253 248 239 271 293 291 277 284 289 295 299 303 302 292 292 306 314 313 316 303
nan nan nan nan nan nan nan nan nan nan nan nan nan nan nan nan nan nan nan nan nan nan nan 261 256 248 244 228 247 291 289 289 292 298 298 301 299 292 279 285 296 304 314 301
nan nan nan nan nan nan nan nan nan nan nan nan nan nan nan nan nan nan nan nan nan nan nan nan 265 263 259 253 242 242 279 285 284 292 291 299 292 290 283 286 293 299 310 313
nan nan nan nan nan nan nan nan nan nan nan nan nan nan nan nan nan nan nan nan nan nan nan nan nan 265 265 265 258 247 240 281 290 291 288 289 288 282 278 271 279 288 284 302